Weather History for Pensacola NAS, FL

Change the Weather History Date:

Sunday, December 9, 2012

  Actual Average Record
Temperature  
Mean Temperature 62 °F -  
Max Temperature 73 °F 63 °F 75 °F (2007)
Min Temperature 51 °F 46 °F 26 °F (2006)
Degree Days  
Heating Degree Days 3    
Growing Degree Days 12 (Base 50)    
Moisture  
Dew Point 59 °F    
Average Humidity 95    
Maximum Humidity 100    
Minimum Humidity 76    
Precipitation  
Precipitation 0.00 in - - ()
Sea Level Pressure  
Sea Level Pressure 30.01 in    
Wind  
Wind Speed 2 mph (SSE)    
Max Wind Speed 13 mph    
Max Gust Speed -    
Visibility 5 miles    
Events Fog , Rain    
Averages and records for this station are not official NWS values.
T = Trace of Precipitation, MM = Missing Value Source: NWS Daily Summary

Daily Weather History Graph

Daily Weather History Graph

Search for Another Location

Airport:

Trip Planner

Search our weather history database for the weather conditions in past years. The results will help you decide how hot, cold, wet, or windy it might be!

Date:

Astronomy

Dec. 09, 2012 Rise Set
Actual Time 6:34 AM CST 4:49 PM CST
Civil Twilight 6:08 AM CST 5:15 PM CST
Nautical Twilight 5:38 AM CST 5:45 PM CST
Astronomical Twilight 5:09 AM CST 6:14 PM CST
Moon 2:19 AM CST (12/9) 1:44 PM CST (12/9)
Length of Visible Light 11h 06m
Length of Day
10h 14m
Waning Crescent, 18% of the Moon is Illuminated
Dec 9
Waning Crescent
Dec 13
New
Dec 19
First Quarter
Dec 28
Full
Jan 4
Last Quarter

Hourly Weather History & Observations

Time (CST) Temp. Dew Point Humidity Pressure Visibility Wind Dir Wind Speed Gust Speed Precip Events Conditions
12:16 AM 53.6 °F 53.6 °F 100% 30.00 in 1.8 mi Calm Calm - 0.00 in   Scattered Clouds
12:25 AM 53.6 °F 53.6 °F 100% 30.00 in 3.0 mi Calm Calm - 0.00 in   Mostly Cloudy
12:37 AM 55.4 °F 55.4 °F 100% 30.00 in 1.5 mi Calm Calm - 0.00 in   Overcast
12:45 AM 55.4 °F 55.4 °F 100% 30.00 in 0.5 mi Calm Calm - 0.00 in Fog Fog
12:52 AM 53.6 °F 53.6 °F 100% 30.00 in 3.0 mi Calm Calm - 0.00 in   Overcast
12:56 AM 54.0 °F 54.0 °F 100% 30.01 in 7.0 mi Calm Calm - 0.00 in   Overcast
1:10 AM 53.6 °F 53.6 °F 100% 30.00 in 1.5 mi Calm Calm - 0.00 in Rain Light Rain
1:20 AM 53.6 °F 53.6 °F 100% 30.00 in 0.5 mi Calm Calm - 0.00 in Fog , Rain Light Rain
1:34 AM 53.6 °F 53.6 °F 100% 30.00 in 0.2 mi Calm Calm - 0.00 in Fog Fog
1:56 AM 52.0 °F 52.0 °F 100% 30.01 in 0.5 mi Calm Calm - 0.00 in Fog Fog
2:56 AM 53.1 °F 53.1 °F 100% 30.00 in 1.0 mi Calm Calm - 0.00 in   Mist
3:09 AM 53.6 °F 53.6 °F 100% 30.00 in 3.0 mi Calm Calm - N/A   Overcast
3:23 AM 51.8 °F 51.8 °F 100% 30.00 in 1.8 mi Calm Calm - N/A   Overcast
3:34 AM 51.8 °F 51.8 °F 100% 30.00 in 0.5 mi Calm Calm - N/A Fog Fog
3:48 AM 53.6 °F 53.6 °F 100% 30.00 in 2.0 mi Calm Calm - N/A   Overcast
3:56 AM 53.1 °F 53.1 °F 100% 30.01 in 1.8 mi Calm Calm - N/A   Overcast
4:02 AM 53.6 °F 53.6 °F 100% 30.00 in 3.0 mi Calm Calm - N/A   Overcast
4:31 AM 51.8 °F 51.8 °F 100% 30.01 in 5.0 mi Calm Calm - 0.00 in   Scattered Clouds
4:41 AM 53.6 °F 53.6 °F 100% 30.01 in 1.5 mi Calm Calm - 0.00 in   Partly Cloudy
4:45 AM 53.6 °F 53.6 °F 100% 30.01 in 0.8 mi Calm Calm - 0.00 in   Mist
4:56 AM 53.1 °F 53.1 °F 100% 30.02 in 0.5 mi Calm Calm - 0.00 in Fog Fog
5:05 AM 53.6 °F 53.6 °F 100% 30.02 in 2.5 mi Calm Calm - N/A   Overcast
5:12 AM 51.8 °F 51.8 °F 100% 30.02 in 8.0 mi Calm Calm - N/A   Overcast
5:56 AM 54.0 °F 54.0 °F 100% 30.03 in 3.0 mi Calm Calm - 0.00 in   Mostly Cloudy
5:58 AM 53.6 °F 53.6 °F 100% 30.03 in 1.8 mi Calm Calm - N/A   Mostly Cloudy
6:08 AM 53.6 °F 53.6 °F 100% 30.03 in 0.5 mi Calm Calm - N/A Fog Fog
6:18 AM 55.4 °F 55.4 °F 100% 30.03 in 0.2 mi Calm Calm - 0.00 in Fog , Rain Light Rain
6:56 AM 57.9 °F 57.9 °F 100% 30.05 in 0.2 mi Calm Calm - 0.00 in Fog Fog
7:56 AM 61.0 °F 61.0 °F 100% 30.06 in 0.2 mi Calm Calm - N/A Fog Fog
8:04 AM 62.6 °F 62.6 °F 100% 30.06 in 1.0 mi Calm Calm - N/A   Mostly Cloudy
8:07 AM 62.6 °F 62.6 °F 100% 30.06 in 5.0 mi Calm Calm - 0.00 in Rain Light Rain
8:19 AM 64.4 °F 64.4 °F 100% 30.06 in 10.0 mi Calm Calm - 0.00 in   Scattered Clouds
8:56 AM 64.9 °F 64.9 °F 100% 30.07 in 10.0 mi ENE 4.6 mph - N/A   Mostly Cloudy
9:56 AM 68.0 °F 64.9 °F 90% 30.08 in 10.0 mi Calm Calm - N/A   Mostly Cloudy
10:56 AM 73.0 °F 64.9 °F 76% 30.06 in 10.0 mi SE 5.8 mph - N/A   Mostly Cloudy
11:56 AM 73.0 °F 64.9 °F 76% 30.04 in 10.0 mi South 5.8 mph - N/A   Overcast
12:56 PM 73.0 °F 66.0 °F 79% 30.01 in 10.0 mi South 9.2 mph - N/A   Overcast
1:56 PM 73.9 °F 66.0 °F 76% 30.01 in 10.0 mi SSE 10.4 mph - N/A   Overcast
2:56 PM 72.0 °F 66.0 °F 81% 30.00 in 10.0 mi SSE 10.4 mph - N/A   Overcast
3:09 PM 71.6 °F 66.2 °F 83% 29.99 in 10.0 mi South 8.1 mph - N/A   Overcast
3:56 PM 72.0 °F 68.0 °F 87% 30.00 in 10.0 mi South 9.2 mph - N/A   Overcast
4:56 PM 71.1 °F 68.0 °F 90% 29.99 in 10.0 mi South 10.4 mph - N/A   Overcast
5:12 PM 69.8 °F 68.0 °F 94% 29.99 in 10.0 mi SSE 8.1 mph - N/A   Mostly Cloudy
5:30 PM 69.8 °F 68.0 °F 94% 29.98 in 10.0 mi SSE 8.1 mph - N/A   Mostly Cloudy
5:56 PM 70.0 °F 68.0 °F 93% 29.99 in 10.0 mi South 9.2 mph - N/A   Scattered Clouds
6:56 PM 70.0 °F 68.0 °F 93% 29.99 in 10.0 mi South 9.2 mph - N/A   Partly Cloudy
7:56 PM 70.0 °F 68.0 °F 93% 29.99 in 10.0 mi South 10.4 mph - N/A   Partly Cloudy
8:56 PM 70.0 °F 66.9 °F 90% 29.99 in 10.0 mi South 10.4 mph - N/A   Partly Cloudy
9:56 PM 70.0 °F 66.9 °F 90% 29.98 in 10.0 mi South 12.7 mph - N/A   Partly Cloudy
10:56 PM 70.0 °F 66.9 °F 90% 29.96 in 10.0 mi South 12.7 mph - N/A   Clear
11:56 PM 70.0 °F 66.9 °F 90% 29.95 in 10.0 mi South 11.5 mph - N/A   Partly Cloudy